Location: �perlecques
(50.8057°N, 2.1521°E)
Time: 20:54:33
(UTC+00:00)

Tiros 1 - Pass Details

Date: 04 August 2021
Orbit: 630 x 663 km, 48.4° (Epoch: 28 September)

Event Time Altitude Azimuth Distance (km) Brightness Sun altitude
Rises 22:44:02 0° 279° (W) 2,968 10.9 -20.3°
Reaches altitude 10° 22:47:02 10° 260° (W) 2,047 9.8 -20.5°
Enters shadow 22:49:15 17° 232° (SW) 1,639 9.0 -20.6°
Maximum altitude 22:50:08 18° 219° (SW) 1,596 - -20.6°
Drops below altitude 10° 22:53:12 10° 177° (S) 2,025 - -20.8°
Sets 22:56:09 0° 158° (SSE) 2,924 - -20.9°
